Waycross, GA

11:49 AM EDT on May 26, 2017 (GMT -0400)
Waycross-Ware County

Weather History for KAYS - June, 2014

Change the Weather History Date:

Friday, June 6, 2014

  Actual Average (KAMG) Record (KAMG)
Temperature  
Mean Temperature 85 °F -  
Max Temperature 96 °F 88 °F 101 °F (1985)
Min Temperature 74 °F 67 °F 50 °F (1954)
Cooling Degree Days 20    
Growing Degree Days 35 (Base 50)    
Moisture  
Dew Point 75 °F    
Average Humidity 76    
Maximum Humidity 100    
Minimum Humidity 50    
Precipitation  
Precipitation 0.00 in - - ()
Sea Level Pressure  
Sea Level Pressure 29.92 in    
Wind  
Wind Speed 5 mph (WNW)    
Max Wind Speed 12 mph    
Max Gust Speed -    
Visibility 10 miles    
Events Rain    
Averages and records for this station are not official NWS values.
T = Trace of Precipitation, MM = Missing Value Source: NWS Daily Summary

Daily Weather History Graph

Daily Weather History Graph

Search for Another Location

Airport or City:

Trip Planner

Search our weather history database for the weather conditions in past years. The results will help you decide how hot, cold, wet, or windy it might be!

Date:

Astronomy

Jun. 06, 2014 Rise Set
Actual Time 6:25 AM EDT 8:31 PM EDT
Civil Twilight 5:57 AM EDT 8:59 PM EDT
Nautical Twilight 5:23 AM EDT 9:33 PM EDT
Astronomical Twilight 4:47 AM EDT 10:09 PM EDT
Moon 2:12 PM EDT (6/6) 1:51 AM EDT (6/6)
Length of Visible Light 15h 01m
Length of Day
14h 06m
First Quarter, 58% of the Moon is Illuminated
Jun 6
First Quarter
Jun 13
Full
Jun 19
Last Quarter
Jun 27
New
Jul 5
First Quarter

Hourly Weather History & Observations

Time (EDT) Temp. Heat Index Dew Point Humidity Pressure Visibility Wind Dir Wind Speed Gust Speed Precip Events Conditions
12:15 AM 80.1 °F 84.4 °F 73.4 °F 80% 29.91 in 10.0 mi SW 6.9 mph - N/A   Clear
12:35 AM 79.3 °F - 73.2 °F 81% 29.90 in 10.0 mi WSW 8.1 mph - N/A   Clear
12:55 AM 79.0 °F - 72.7 °F 81% 29.91 in 10.0 mi West 4.6 mph - N/A   Clear
1:15 AM 78.4 °F - 72.5 °F 82% 29.91 in 10.0 mi WSW 4.6 mph - N/A   Clear
1:35 AM 77.7 °F - 72.5 °F 84% 29.90 in 10.0 mi SW 6.9 mph - N/A   Clear
1:55 AM 77.0 °F - 72.5 °F 86% 29.87 in 10.0 mi SSW 9.2 mph - N/A   Clear
2:15 AM 77.2 °F - 72.1 °F 84% 29.88 in 10.0 mi WSW 8.1 mph - N/A   Clear
2:35 AM 77.2 °F - 72.1 °F 84% 29.91 in 10.0 mi WNW 4.6 mph - N/A   Clear
2:55 AM 77.0 °F - 72.0 °F 84% 29.91 in 10.0 mi West 4.6 mph - N/A   Clear
3:15 AM 76.1 °F - 72.0 °F 87% 29.91 in 10.0 mi West 4.6 mph - N/A   Clear
3:35 AM 76.3 °F - 71.8 °F 86% 29.91 in 10.0 mi West 4.6 mph - N/A   Clear
3:55 AM 76.5 °F - 72.5 °F 87% 29.91 in 10.0 mi West 5.8 mph - N/A   Clear
4:15 AM 76.3 °F - 72.7 °F 89% 29.91 in 10.0 mi WSW 5.8 mph - N/A   Clear
4:35 AM 76.3 °F - 73.4 °F 91% 29.91 in 10.0 mi West 6.9 mph - N/A   Clear
4:55 AM 76.3 °F - 73.4 °F 91% 29.92 in 10.0 mi West 4.6 mph - N/A   Clear
5:15 AM 76.6 °F - 73.8 °F 91% 29.93 in 10.0 mi West 6.9 mph - N/A   Scattered Clouds
5:35 AM 76.6 °F - 73.9 °F 91% 29.94 in 10.0 mi WNW 8.1 mph - N/A   Mostly Cloudy
5:55 AM 76.6 °F - 74.1 °F 92% 29.94 in 10.0 mi West 5.8 mph - N/A   Scattered Clouds
6:15 AM 76.3 °F - 73.9 °F 92% 29.94 in 10.0 mi NW 3.5 mph - N/A   Clear
6:35 AM 76.3 °F - 74.1 °F 93% 29.95 in 10.0 mi NW 4.6 mph - N/A   Mostly Cloudy
6:55 AM 76.1 °F - 74.3 °F 94% 29.95 in 10.0 mi WNW 4.6 mph - N/A   Scattered Clouds
7:15 AM 76.3 °F - 74.3 °F 94% 29.95 in 10.0 mi West 3.5 mph - N/A   Scattered Clouds
7:35 AM 76.5 °F - 74.7 °F 94% 29.95 in 10.0 mi WSW 4.6 mph - N/A   Scattered Clouds
7:55 AM 77.2 °F - 74.8 °F 92% 29.96 in 10.0 mi West 5.8 mph - N/A   Clear
8:15 AM 77.5 °F - 75.2 °F 92% 29.96 in 10.0 mi West 6.9 mph - N/A   Clear
8:35 AM 77.9 °F - 75.2 °F 91% 29.97 in 10.0 mi West 5.8 mph - N/A   Clear
8:55 AM 78.3 °F - 75.6 °F 91% 29.97 in 10.0 mi WNW 5.8 mph - N/A   Clear
9:15 AM 79.0 °F - 75.7 °F 90% 29.97 in 10.0 mi WNW 5.8 mph - N/A   Clear
9:35 AM 79.7 °F - 76.1 °F 89% 29.96 in 10.0 mi NW 4.6 mph - N/A   Clear
9:55 AM 80.8 °F 87.2 °F 76.5 °F 87% 29.96 in 10.0 mi NNW 4.6 mph - N/A   Clear
10:15 AM 82.0 °F 90.2 °F 77.0 °F 85% 29.95 in 10.0 mi NNW 4.6 mph - N/A   Clear
10:35 AM 84.0 °F 93.7 °F 76.8 °F 79% 29.95 in 10.0 mi NNW 3.5 mph - N/A   Clear
10:55 AM 85.3 °F 95.0 °F 76.1 °F 74% 29.95 in 10.0 mi Calm Calm - N/A   Clear
11:15 AM 86.9 °F 98.8 °F 77.2 °F 73% 29.94 in 10.0 mi Calm Calm - N/A   Clear
11:35 AM 87.3 °F 98.8 °F 76.8 °F 71% 29.94 in 10.0 mi Calm Calm - N/A   Clear
11:55 AM 88.7 °F 99.3 °F 75.4 °F 65% 29.93 in 10.0 mi NW 4.6 mph - N/A   Clear
12:15 PM 90.0 °F 100.2 °F 75.0 °F 61% 29.93 in 10.0 mi North 4.6 mph - N/A   Clear
12:35 PM 90.1 °F 101.8 °F 76.1 °F 63% 29.93 in 10.0 mi Calm Calm - N/A   Clear
12:55 PM 90.3 °F 102.3 °F 76.3 °F 63% 29.93 in 10.0 mi North 4.6 mph - N/A   Clear
1:15 PM 91.0 °F 101.6 °F 74.8 °F 59% 29.92 in 10.0 mi Calm Calm - N/A   Clear
1:35 PM 92.8 °F 106.9 °F 77.2 °F 60% 29.90 in 10.0 mi Calm Calm - N/A   Clear
1:55 PM 93.9 °F 106.9 °F 75.9 °F 56% 29.90 in 10.0 mi WNW 5.8 mph - N/A   Clear
2:15 PM 93.4 °F 105.5 °F 75.7 °F 56% 29.90 in 10.0 mi Calm Calm - N/A   Scattered Clouds
2:35 PM 94.3 °F 107.8 °F 76.3 °F 56% 29.89 in 10.0 mi WSW 4.6 mph - N/A   Mostly Cloudy
2:55 PM 94.3 °F 105.6 °F 75.0 °F 53% 29.88 in 10.0 mi WSW 5.8 mph - N/A   Scattered Clouds
3:15 PM 95.4 °F 109.1 °F 76.1 °F 54% 29.88 in 10.0 mi NW 6.9 mph - N/A   Scattered Clouds
3:35 PM 95.0 °F 106.7 °F 75.0 °F 52% 29.88 in 10.0 mi Calm Calm - N/A   Scattered Clouds
3:55 PM 95.7 °F 108.5 °F 75.4 °F 52% 29.88 in 10.0 mi WNW 4.6 mph - N/A   Scattered Clouds
4:15 PM 94.3 °F 105.6 °F 75.0 °F 53% 29.87 in 10.0 mi NNW 5.8 mph - N/A   Mostly Cloudy
4:35 PM 93.4 °F 105.5 °F 75.4 °F 56% 29.87 in 10.0 mi North 4.6 mph - N/A   Mostly Cloudy
4:55 PM 93.4 °F 106.2 °F 76.3 °F 57% 29.86 in 10.0 mi NNW 5.8 mph - N/A   Mostly Cloudy
5:15 PM 95.4 °F 109.9 °F 76.6 °F 55% 29.85 in 10.0 mi NNW 4.6 mph - N/A   Mostly Cloudy
5:35 PM 96.1 °F 108.6 °F 75.0 °F 51% 29.86 in 10.0 mi NW 9.2 mph - N/A   Overcast
5:55 PM 96.6 °F 109.2 °F 75.0 °F 50% 29.87 in 10.0 mi WNW 6.9 mph - N/A   Scattered Clouds
6:15 PM 94.6 °F 105.8 °F 74.3 °F 52% 29.86 in 10.0 mi WNW 8.1 mph - N/A   Clear
6:35 PM 93.4 °F 105.5 °F 75.4 °F 56% 29.86 in 10.0 mi NNW 5.8 mph - N/A   Clear
6:55 PM 92.3 °F 104.8 °F 76.3 °F 59% 29.86 in 10.0 mi NW 3.5 mph - N/A   Clear
7:15 PM 91.4 °F 103.8 °F 76.1 °F 61% 29.87 in 10.0 mi NNW 3.5 mph - N/A   Clear
7:35 PM 90.1 °F 103.0 °F 77.0 °F 65% 29.87 in 10.0 mi Calm Calm - N/A   Clear
7:55 PM 88.7 °F 103.4 °F 78.4 °F 72% 29.88 in 10.0 mi Calm Calm - N/A   Clear
8:15 PM 87.8 °F 101.9 °F 78.6 °F 74% 29.87 in 10.0 mi Calm Calm - N/A   Scattered Clouds
8:35 PM 86.7 °F 99.9 °F 78.3 °F 76% 29.87 in 10.0 mi NNE 8.1 mph - N/A   Mostly Cloudy
8:55 PM 86.4 °F 97.8 °F 77.4 °F 74% 29.89 in 10.0 mi NNE 4.6 mph - N/A   Scattered Clouds
9:15 PM 85.3 °F 96.3 °F 77.2 °F 77% 29.92 in 10.0 mi Calm Calm - N/A   Scattered Clouds
9:35 PM 84.4 °F 94.2 °F 77.0 °F 78% 29.94 in 10.0 mi South 6.9 mph - N/A   Mostly Cloudy
9:55 PM 82.6 °F 89.4 °F 74.8 °F 77% 29.94 in 10.0 mi South 6.9 mph - N/A   Mostly Cloudy
10:15 PM 81.9 °F 88.5 °F 75.2 °F 80% 29.97 in 10.0 mi NNW 9.2 mph - N/A Rain Heavy Rain
10:35 PM 77.0 °F - 75.7 °F 96% 29.98 in 10.0 mi ENE 5.8 mph - N/A Rain Light Rain
10:55 PM 75.6 °F - 75.6 °F 100% 30.00 in 7.0 mi ESE 9.2 mph - N/A Rain Light Rain
11:15 PM 74.7 °F - 74.7 °F 100% 29.99 in 10.0 mi SE 11.5 mph - N/A Rain Light Rain
11:35 PM 74.7 °F - 74.7 °F 100% 30.00 in 10.0 mi East 5.8 mph - N/A Rain Rain
11:55 PM 74.5 °F - 74.5 °F 100% 30.03 in 10.0 mi East 3.5 mph - N/A Rain Light Rain